DMSP 5D-2 F13 DEB, 40568

Orbit data source: Space-Track

DMSP 5D-2 F13 DEB, 40568 is space debris in SSO originally from a launch on Fri, 24 Mar 1995 UTC launched from the Air Force Western Test Range (AFWTR). Debris objects in space refer to the collection of defunct objects orbiting the Earth. Examples of debris include non-operational satellites, rocket bodies, and fragments generated from explosions, collisions, or faulty payload assembly.

Loading next visibility...
Identifier
40568, 1995-015EB
Orbit
SSO
Country
Flag of USUS
Related business
Manufacturer
Unknown
Mission
Spacecraft
Bus & Motor
Unknown
Mass
Unknown
Launch date (UTC)
1995-03-24 (31 years ago)
Launch vehicle
Unknown
Launch site
Air Force Western Test Range (AFWTR)
Object type
Payload
Rocket body
Debris
Shape & HBR
Unknown shape, 0.1 m
Radar Cross Section
Medium (>0.1 m² and <1 m²)

Expand to show TLE details & history
Last TLE update: 19 hours ago

TLE from 19 hours ago
0 DMSP 5D-2 F13 DEB
1 40568U 95015EB  26150.04310709  .00005578  00000-0  19084-2 0  9990
2 40568  98.8326 184.3842 0026992 222.1330 137.7781 14.36468626577685
Epoch: 2026-05-30T01:02Z
TLE epoch observation values (Epoch: 2026-05-30T01:02:04.452Z)
Latitude
0.00003°
Longitude
-78.69916°
Altitude
787.438 km
Speed
7.453 km/s
True Right ascension
12h 17m 32s
True Declination
0° 00' 00"
Sunlit
Object was in daylight at epoch
Visualization orbit readout
Latitude
Unknown
Longitude
Unknown
Altitude
Unknown
Speed
Unknown
Apparent Right ascension
Unknown
Apparent Declination
Unknown
Sunlit
N/A
Visualization observer readout
Local Sidereal Time
05:13:09
Azimuth
Unknown
Elevation
Unknown
Doppler factor
Unknown
Orbital elements
Apogee altitude
786.62 km
Perigee altitude
748.046 km
Semi-major axis
7,145.47 km
Eccentricity
0.0027
Inclination
98.8326°
RAAN
184.3842°
Arg. of periapsis
222.133°
True anomaly
137.98544°
Mean anomaly
137.7781°
Eccentric anomaly
137.88182°
Mean motion
3.59333 °/min
Orbital period
100.19 mins
BSTAR
0.0019084
Loading maneuver chart data...
Computing Atmospheric mass density...

Documentation

Showing up to 5 results
|